Time,TemperatureF,DewpointF,PressureIn,WindDirection,WindDirectionDegrees,WindSpeedMPH,WindSpeedGustMPH,Humidity,HourlyPrecipIn,Conditions,Clouds,dailyrainin,SoftwareType,DateUTC
2013-06-06 00:02:00,62.0,62.0,29.91,WNW,292,2.0,3.0,98,-99.99,,,-99.99,,2013-06-06 05:02:00,
2013-06-06 00:12:00,63.0,62.0,29.91,West,270,4.0,6.0,98,-99.99,,,-99.99,,2013-06-06 05:12:00,
2013-06-06 00:22:00,63.0,62.0,29.91,West,270,3.0,6.0,98,-99.99,,,-99.99,,2013-06-06 05:22:00,
2013-06-06 00:32:00,62.0,62.0,29.90,West,270,2.0,4.0,98,-99.99,,,-99.99,,2013-06-06 05:32:00,
2013-06-06 00:42:00,61.0,61.0,29.90,West,270,2.0,3.0,98,-99.99,,,-99.99,,2013-06-06 05:42:00,
2013-06-06 00:52:00,62.0,62.0,29.89,NW,315,2.0,3.0,99,-99.99,,,-99.99,,2013-06-06 05:52:00,
2013-06-06 01:02:00,62.0,61.0,29.89,WNW,292,0.0,-999.0,99,-99.99,,,-99.99,,2013-06-06 06:02:00,
2013-06-06 01:12:00,62.0,62.0,29.89,NW,315,0.0,-999.0,99,-99.99,,,-99.99,,2013-06-06 06:12:00,
2013-06-06 01:22:00,62.0,61.0,29.89,WNW,292,1.0,2.0,99,-99.99,,,-99.99,,2013-06-06 06:22:00,
2013-06-06 01:32:00,61.0,61.0,29.89,West,270,1.0,2.0,99,-99.99,,,-99.99,,2013-06-06 06:32:00,
2013-06-06 01:42:00,61.0,61.0,29.89,WNW,292,2.0,3.0,99,-99.99,,,-99.99,,2013-06-06 06:42:00,
2013-06-06 01:52:00,62.0,61.0,29.88,WNW,292,1.0,3.0,99,-99.99,,,-99.99,,2013-06-06 06:52:00,
2013-06-06 02:02:00,62.0,61.0,29.88,WNW,292,0.0,-999.0,99,-99.99,,,-99.99,,2013-06-06 07:02:00,
2013-06-06 02:12:00,61.0,61.0,29.87,NW,315,2.0,3.0,99,-99.99,,,-99.99,,2013-06-06 07:12:00,
2013-06-06 02:22:00,61.0,61.0,29.87,NW,315,0.0,-999.0,99,-99.99,,,-99.99,,2013-06-06 07:22:00,
2013-06-06 02:32:00,61.0,61.0,29.87,NW,315,0.0,-999.0,99,-99.99,,,-99.99,,2013-06-06 07:32:00,
2013-06-06 02:42:00,61.0,61.0,29.86,WNW,292,0.0,-999.0,100,-99.99,,,-99.99,,2013-06-06 07:42:00,
2013-06-06 02:52:00,60.0,60.0,29.86,NW,315,1.0,2.0,99,-99.99,,,-99.99,,2013-06-06 07:52:00,
2013-06-06 03:02:00,60.0,60.0,29.86,WNW,292,3.0,3.0,100,-99.99,,,-99.99,,2013-06-06 08:02:00,
2013-06-06 03:12:00,60.0,60.0,29.87,WNW,292,3.0,4.0,100,-99.99,,,-99.99,,2013-06-06 08:12:00,
2013-06-06 03:22:00,60.0,60.0,29.86,WNW,292,3.0,4.0,100,-99.99,,,-99.99,,2013-06-06 08:22:00,
2013-06-06 03:32:00,61.0,61.0,29.85,NW,315,5.0,6.0,100,-99.99,,,-99.99,,2013-06-06 08:32:00,
2013-06-06 03:42:00,62.0,62.0,29.86,NW,315,7.0,8.0,100,-99.99,,,-99.99,,2013-06-06 08:42:00,
2013-06-06 03:52:00,63.0,63.0,29.85,NNW,337,7.0,9.0,100,-99.99,,,-99.99,,2013-06-06 08:52:00,
2013-06-06 04:02:00,63.0,63.0,29.85,NNW,337,7.0,11.0,100,-99.99,,,-99.99,,2013-06-06 09:02:00,
2013-06-06 04:12:00,63.0,63.0,29.86,East,90,6.0,9.0,100,-99.99,,,-99.99,,2013-06-06 09:12:00,
2013-06-06 04:22:00,63.0,63.0,29.85,East,90,8.0,11.0,100,-99.99,,,-99.99,,2013-06-06 09:22:00,
2013-06-06 04:33:00,64.0,63.0,29.85,NNW,337,8.0,12.0,99,-99.99,,,-99.99,,2013-06-06 09:33:00,
2013-06-06 04:43:00,64.0,63.0,29.85,East,90,7.0,10.0,99,-99.99,,,-99.99,,2013-06-06 09:43:00,
2013-06-06 04:53:00,64.0,63.0,29.87,NNW,337,5.0,8.0,99,-99.99,,,-99.99,,2013-06-06 09:53:00,
2013-06-06 05:03:00,64.0,63.0,29.87,NNW,337,5.0,9.0,98,-99.99,,,-99.99,,2013-06-06 10:03:00,
2013-06-06 05:12:00,64.0,63.0,29.87,NNW,337,6.0,8.0,98,-99.99,,,-99.99,,2013-06-06 10:12:00,
2013-06-06 05:22:00,63.0,63.0,29.88,NNW,337,8.0,11.0,98,-99.99,,,-99.99,,2013-06-06 10:22:00,
2013-06-06 05:33:00,63.0,63.0,29.88,NNW,337,5.0,8.0,97,-99.99,,,-99.99,,2013-06-06 10:33:00,
2013-06-06 05:42:00,64.0,63.0,29.88,NNW,337,5.0,8.0,97,-99.99,,,-99.99,,2013-06-06 10:42:00,
2013-06-06 05:52:00,63.0,63.0,29.88,NNW,337,5.0,8.0,97,-99.99,,,-99.99,,2013-06-06 10:52:00,
2013-06-06 06:02:00,63.0,62.0,29.89,NNW,337,5.0,8.0,97,-99.99,,,-99.99,,2013-06-06 11:02:00,
2013-06-06 06:12:00,63.0,62.0,29.89,NW,315,6.0,8.0,97,-99.99,,,-99.99,,2013-06-06 11:12:00,
2013-06-06 06:22:00,63.0,63.0,29.89,NNW,337,4.0,6.0,97,-99.99,,,-99.99,,2013-06-06 11:22:00,
2013-06-06 06:32:00,63.0,63.0,29.89,NNW,337,3.0,4.0,97,-99.99,,,-99.99,,2013-06-06 11:32:00,
2013-06-06 06:42:00,64.0,63.0,29.89,NNW,337,4.0,6.0,97,-99.99,,,-99.99,,2013-06-06 11:42:00,
2013-06-06 06:52:00,64.0,63.0,29.89,East,90,3.0,6.0,96,-99.99,,,-99.99,,2013-06-06 11:52:00,
2013-06-06 07:02:00,64.0,63.0,29.89,NNW,337,5.0,7.0,95,-99.99,,,-99.99,,2013-06-06 12:02:00,
2013-06-06 07:12:00,65.0,63.0,29.89,East,90,4.0,7.0,94,-99.99,,,-99.99,,2013-06-06 12:12:00,
2013-06-06 07:22:00,65.0,63.0,29.88,East,90,5.0,8.0,93,-99.99,,,-99.99,,2013-06-06 12:22:00,
2013-06-06 07:33:00,65.0,63.0,29.89,NNW,337,5.0,8.0,92,-99.99,,,-99.99,,2013-06-06 12:33:00,
2013-06-06 07:42:00,65.0,62.0,29.89,East,90,6.0,8.0,89,-99.99,,,-99.99,,2013-06-06 12:42:00,
2013-06-06 07:52:00,66.0,62.0,29.89,NNW,337,6.0,10.0,86,-99.99,,,-99.99,,2013-06-06 12:52:00,
2013-06-06 08:03:00,66.0,61.0,29.89,East,90,6.0,11.0,85,-99.99,,,-99.99,,2013-06-06 13:03:00,
2013-06-06 08:12:00,66.0,61.0,29.89,NNE,22,7.0,11.0,83,-99.99,,,-99.99,,2013-06-06 13:12:00,
2013-06-06 08:22:00,66.0,61.0,29.89,East,90,8.0,12.0,85,-99.99,,,-99.99,,2013-06-06 13:22:00,
2013-06-06 08:32:00,65.0,61.0,29.89,NNW,337,9.0,13.0,86,-99.99,,,-99.99,,2013-06-06 13:32:00,
2013-06-06 08:42:00,66.0,60.0,29.90,East,90,7.0,11.0,82,-99.99,,,-99.99,,2013-06-06 13:42:00,
2013-06-06 08:52:00,66.0,61.0,29.90,NNW,337,8.0,12.0,84,-99.99,,,-99.99,,2013-06-06 13:52:00,
2013-06-06 09:03:00,67.0,61.0,29.89,East,90,6.0,10.0,79,-99.99,,,-99.99,,2013-06-06 14:03:00,
2013-06-06 09:12:00,68.0,62.0,29.89,NNW,337,7.0,11.0,81,-99.99,,,-99.99,,2013-06-06 14:12:00,
2013-06-06 09:22:00,68.0,61.0,29.90,East,90,5.0,8.0,76,-99.99,,,-99.99,,2013-06-06 14:22:00,
2013-06-06 09:32:00,68.0,59.0,29.90,East,90,7.0,11.0,75,-99.99,,,-99.99,,2013-06-06 14:32:00,
2013-06-06 09:43:00,68.0,60.0,29.90,East,90,7.0,11.0,76,-99.99,,,-99.99,,2013-06-06 14:43:00,
2013-06-06 09:52:00,70.0,59.0,29.90,East,90,7.0,11.0,68,-99.99,,,-99.99,,2013-06-06 14:52:00,
2013-06-06 10:03:00,70.0,59.0,29.90,East,90,8.0,13.0,70,-99.99,,,-99.99,,2013-06-06 15:03:00,
2013-06-06 10:12:00,72.0,60.0,29.90,East,90,6.0,11.0,66,-99.99,,,-99.99,,2013-06-06 15:12:00,
2013-06-06 10:23:00,71.0,59.0,29.89,East,90,7.0,11.0,65,-99.99,,,-99.99,,2013-06-06 15:23:00,
2013-06-06 10:33:00,71.0,60.0,29.89,East,90,7.0,11.0,69,-99.99,,,-99.99,,2013-06-06 15:33:00,
2013-06-06 10:43:00,71.0,58.0,29.88,NNE,22,8.0,12.0,64,-99.99,,,-99.99,,2013-06-06 15:43:00,
2013-06-06 10:52:00,70.0,58.0,29.88,NNW,337,10.0,14.0,64,-99.99,,,-99.99,,2013-06-06 15:52:00,
2013-06-06 11:03:00,70.0,58.0,29.89,East,90,8.0,11.0,66,-99.99,,,-99.99,,2013-06-06 16:03:00,
2013-06-06 11:12:00,70.0,59.0,29.88,NW,315,8.0,13.0,67,-99.99,,,-99.99,,2013-06-06 16:12:00,
2013-06-06 11:23:00,71.0,56.0,29.89,East,90,8.0,12.0,59,-99.99,,,-99.99,,2013-06-06 16:23:00,
2013-06-06 11:33:00,72.0,56.0,29.89,NW,315,8.0,13.0,56,-99.99,,,-99.99,,2013-06-06 16:33:00,
2013-06-06 11:43:00,73.0,57.0,29.89,East,90,8.0,13.0,56,-99.99,,,-99.99,,2013-06-06 16:43:00,
2013-06-06 11:52:00,72.0,57.0,29.89,East,90,10.0,13.0,60,-99.99,,,-99.99,,2013-06-06 16:52:00,
2013-06-06 12:03:00,72.0,57.0,29.90,NW,315,7.0,11.0,58,-99.99,,,-99.99,,2013-06-06 17:03:00,
2013-06-06 12:13:00,72.0,55.0,29.90,NNW,337,7.0,12.0,55,-99.99,,,-99.99,,2013-06-06 17:13:00,
2013-06-06 12:22:00,72.0,55.0,29.90,WNW,292,7.0,17.0,55,-99.99,,,-99.99,,2013-06-06 17:22:00,
2013-06-06 12:32:00,73.0,55.0,29.90,WNW,292,10.0,13.0,54,-99.99,,,-99.99,,2013-06-06 17:32:00,
2013-06-06 12:42:00,74.0,56.0,29.90,NNE,22,8.0,13.0,54,-99.99,,,-99.99,,2013-06-06 17:42:00,
2013-06-06 12:52:00,73.0,56.0,29.89,NW,315,8.0,12.0,55,-99.99,,,-99.99,,2013-06-06 17:52:00,
2013-06-06 13:03:00,74.0,53.0,29.90,NW,315,7.0,12.0,48,-99.99,,,-99.99,,2013-06-06 18:03:00,
2013-06-06 13:13:00,73.0,52.0,29.90,NW,315,8.0,13.0,46,-99.99,,,-99.99,,2013-06-06 18:13:00,
2013-06-06 13:23:00,74.0,49.0,29.90,East,90,8.0,14.0,41,-99.99,,,-99.99,,2013-06-06 18:23:00,
2013-06-06 13:33:00,74.0,50.0,29.90,NW,315,8.0,12.0,43,-99.99,,,-99.99,,2013-06-06 18:33:00,
2013-06-06 13:43:00,75.0,49.0,29.89,East,90,10.0,14.0,40,-99.99,,,-99.99,,2013-06-06 18:43:00,
2013-06-06 13:53:00,75.0,52.0,29.90,East,90,7.0,12.0,45,-99.99,,,-99.99,,2013-06-06 18:53:00,
2013-06-06 14:03:00,75.0,54.0,29.90,East,90,7.0,12.0,48,-99.99,,,-99.99,,2013-06-06 19:03:00,
2013-06-06 14:12:00,75.0,50.0,29.90,NNW,337,9.0,15.0,42,-99.99,,,-99.99,,2013-06-06 19:12:00,
2013-06-06 14:23:00,76.0,52.0,29.90,NW,315,6.0,9.0,43,-99.99,,,-99.99,,2013-06-06 19:23:00,
2013-06-06 14:33:00,74.0,51.0,29.90,East,90,8.0,13.0,45,-99.99,,,-99.99,,2013-06-06 19:33:00,
2013-06-06 14:42:00,75.0,50.0,29.90,NNW,337,8.0,13.0,42,-99.99,,,-99.99,,2013-06-06 19:42:00,
2013-06-06 14:52:00,76.0,53.0,29.90,NW,315,9.0,13.0,44,-99.99,,,-99.99,,2013-06-06 19:52:00,
2013-06-06 15:03:00,75.0,51.0,29.90,East,90,9.0,13.0,43,-99.99,,,-99.99,,2013-06-06 20:03:00,
2013-06-06 15:13:00,76.0,53.0,29.90,NNW,337,8.0,13.0,45,-99.99,,,-99.99,,2013-06-06 20:13:00,
2013-06-06 15:22:00,74.0,54.0,29.90,NNE,22,7.0,11.0,49,-99.99,,,-99.99,,2013-06-06 20:22:00,
2013-06-06 15:33:00,74.0,52.0,29.90,NW,315,8.0,12.0,46,-99.99,,,-99.99,,2013-06-06 20:33:00,
2013-06-06 15:42:00,74.0,50.0,29.90,NW,315,8.0,13.0,43,-99.99,,,-99.99,,2013-06-06 20:42:00,
2013-06-06 15:52:00,74.0,51.0,29.90,WNW,292,9.0,13.0,45,-99.99,,,-99.99,,2013-06-06 20:52:00,
2013-06-06 16:03:00,75.0,50.0,29.89,NNW,337,10.0,14.0,41,-99.99,,,-99.99,,2013-06-06 21:03:00,
2013-06-06 16:12:00,75.0,52.0,29.88,NNW,337,9.0,12.0,45,-99.99,,,-99.99,,2013-06-06 21:12:00,
2013-06-06 16:22:00,74.0,51.0,29.89,NW,315,6.0,9.0,45,-99.99,,,-99.99,,2013-06-06 21:22:00,
2013-06-06 16:33:00,76.0,50.0,29.88,NW,315,9.0,12.0,41,-99.99,,,-99.99,,2013-06-06 21:33:00,
2013-06-06 16:43:00,76.0,53.0,29.88,NW,315,9.0,15.0,45,-99.99,,,-99.99,,2013-06-06 21:43:00,
2013-06-06 16:53:00,76.0,52.0,29.88,NNW,337,7.0,11.0,43,-99.99,,,-99.99,,2013-06-06 21:53:00,
2013-06-06 17:02:00,76.0,52.0,29.88,NNW,337,7.0,11.0,43,-99.99,,,-99.99,,2013-06-06 22:02:00,
2013-06-06 17:13:00,74.0,54.0,29.88,NW,315,10.0,15.0,49,-99.99,,,-99.99,,2013-06-06 22:13:00,
2013-06-06 17:23:00,74.0,54.0,29.88,NW,315,10.0,15.0,49,-99.99,,,-99.99,,2013-06-06 22:23:00,
2013-06-06 17:33:00,75.0,54.0,29.88,NW,315,8.0,13.0,48,-99.99,,,-99.99,,2013-06-06 22:33:00,
2013-06-06 17:43:00,73.0,51.0,29.88,NW,315,10.0,16.0,46,-99.99,,,-99.99,,2013-06-06 22:43:00,
2013-06-06 17:52:00,73.0,52.0,29.88,NNW,337,9.0,12.0,49,-99.99,,,-99.99,,2013-06-06 22:52:00,
2013-06-06 18:02:00,73.0,53.0,29.88,NNW,337,8.0,12.0,48,-99.99,,,-99.99,,2013-06-06 23:02:00,
2013-06-06 18:12:00,73.0,53.0,29.88,NW,315,6.0,8.0,50,-99.99,,,-99.99,,2013-06-06 23:12:00,
2013-06-06 18:22:00,72.0,55.0,29.88,NW,315,6.0,8.0,54,-99.99,,,-99.99,,2013-06-06 23:22:00,
2013-06-06 18:33:00,72.0,53.0,29.87,NNW,337,5.0,8.0,51,-99.99,,,-99.99,,2013-06-06 23:33:00,
2013-06-06 18:42:00,72.0,54.0,29.87,NNW,337,5.0,7.0,52,-99.99,,,-99.99,,2013-06-06 23:42:00,
2013-06-06 18:52:00,72.0,55.0,29.87,NW,315,5.0,7.0,56,-99.99,,,-99.99,,2013-06-06 23:52:00,
2013-06-06 19:02:00,72.0,55.0,29.87,NW,315,5.0,6.0,54,-99.99,,,-99.99,,2013-06-07 00:02:00,
2013-06-06 19:12:00,72.0,55.0,29.86,East,90,5.0,7.0,55,-99.99,,,-99.99,,2013-06-07 00:12:00,
2013-06-06 19:22:00,72.0,55.0,29.87,NNW,337,6.0,8.0,56,-99.99,,,-99.99,,2013-06-07 00:22:00,
2013-06-06 19:32:00,72.0,54.0,29.87,East,90,6.0,9.0,52,-99.99,,,-99.99,,2013-06-07 00:32:00,
2013-06-06 19:42:00,73.0,54.0,29.87,East,90,5.0,8.0,52,-99.99,,,-99.99,,2013-06-07 00:42:00,
2013-06-06 19:52:00,72.0,54.0,29.87,East,90,4.0,7.0,54,-99.99,,,-99.99,,2013-06-07 00:52:00,
2013-06-06 20:02:00,71.0,55.0,29.87,NNE,22,4.0,6.0,57,-99.99,,,-99.99,,2013-06-07 01:02:00,
2013-06-06 20:12:00,70.0,55.0,29.87,East,90,5.0,7.0,59,-99.99,,,-99.99,,2013-06-07 01:12:00,
2013-06-06 20:22:00,70.0,57.0,29.88,NNW,337,4.0,7.0,63,-99.99,,,-99.99,,2013-06-07 01:22:00,
2013-06-06 20:32:00,69.0,58.0,29.88,NNW,337,3.0,4.0,67,-99.99,,,-99.99,,2013-06-07 01:32:00,
2013-06-06 20:42:00,68.0,57.0,29.88,NNW,337,3.0,4.0,68,-99.99,,,-99.99,,2013-06-07 01:42:00,
2013-06-06 20:52:00,68.0,57.0,29.88,NNW,337,3.0,4.0,68,-99.99,,,-99.99,,2013-06-07 01:52:00,
2013-06-06 21:02:00,67.0,57.0,29.88,NNW,337,3.0,4.0,69,-99.99,,,-99.99,,2013-06-07 02:02:00,
2013-06-06 21:12:00,66.0,57.0,29.88,NNW,337,3.0,4.0,72,-99.99,,,-99.99,,2013-06-07 02:12:00,
2013-06-06 21:22:00,66.0,57.0,29.89,NNW,337,3.0,4.0,73,-99.99,,,-99.99,,2013-06-07 02:22:00,
2013-06-06 21:32:00,65.0,57.0,29.89,NNW,337,3.0,4.0,74,-99.99,,,-99.99,,2013-06-07 02:32:00,
2013-06-06 21:42:00,65.0,56.0,29.89,NNW,337,4.0,6.0,74,-99.99,,,-99.99,,2013-06-07 02:42:00,
2013-06-06 21:52:00,65.0,56.0,29.89,NNW,337,4.0,5.0,75,-99.99,,,-99.99,,2013-06-07 02:52:00,
2013-06-06 22:02:00,64.0,57.0,29.89,NNW,337,4.0,5.0,76,-99.99,,,-99.99,,2013-06-07 03:02:00,
2013-06-06 22:12:00,64.0,56.0,29.90,NNW,337,4.0,5.0,76,-99.99,,,-99.99,,2013-06-07 03:12:00,
2013-06-06 22:22:00,63.0,56.0,29.90,NNW,337,4.0,5.0,76,-99.99,,,-99.99,,2013-06-07 03:22:00,
2013-06-06 22:33:00,63.0,56.0,29.90,East,90,4.0,6.0,77,-99.99,,,-99.99,,2013-06-07 03:33:00,
2013-06-06 22:43:00,63.0,56.0,29.90,NNW,337,4.0,5.0,77,-99.99,,,-99.99,,2013-06-07 03:43:00,
2013-06-06 22:53:00,63.0,55.0,29.90,NNW,337,4.0,7.0,74,-99.99,,,-99.99,,2013-06-07 03:53:00,
2013-06-06 23:03:00,63.0,55.0,29.90,East,90,4.0,7.0,74,-99.99,,,-99.99,,2013-06-07 04:03:00,
2013-06-06 23:12:00,62.0,55.0,29.90,NNW,337,4.0,6.0,77,-99.99,,,-99.99,,2013-06-07 04:12:00,
2013-06-06 23:22:00,62.0,55.0,29.90,NNW,337,4.0,6.0,77,-99.99,,,-99.99,,2013-06-07 04:22:00,
2013-06-06 23:33:00,62.0,55.0,29.90,NW,315,4.0,6.0,78,-99.99,,,-99.99,,2013-06-07 04:33:00,
2013-06-06 23:42:00,61.0,55.0,29.90,NNW,337,4.0,6.0,79,-99.99,,,-99.99,,2013-06-07 04:42:00,
2013-06-06 23:53:00,61.0,55.0,29.90,NNW,337,4.0,6.0,79,-99.99,,,-99.99,,2013-06-07 04:53:00,